TimeEST,TemperatureF,Dew PointF,Humidity,Sea Level PressureIn,VisibilityMPH,Wind Direction,Wind SpeedMPH,Gust SpeedMPH,PrecipitationIn,Events,Conditions,WindDirDegrees,DateUTC
12:18 AM,51.8,50.0,94,30.29,0.5,Calm,Calm,-,N/A,Fog,Fog,0,2013-01-29 05:18:00
12:41 AM,48.2,48.2,100,30.29,2.0,Calm,Calm,-,N/A,Fog,Shallow Fog,0,2013-01-29 05:41:00
12:56 AM,48.9,48.0,97,30.29,2.0,Calm,Calm,-,N/A,Fog,Shallow Fog,0,2013-01-29 05:56:00
1:56 AM,48.9,48.0,97,30.28,3.0,Calm,Calm,-,N/A,Fog,Shallow Fog,0,2013-01-29 06:56:00
2:56 AM,46.9,46.0,97,30.28,4.0,North,3.5,-,N/A,,Scattered Clouds,360,2013-01-29 07:56:00
3:05 AM,46.4,46.4,100,30.28,4.0,North,4.6,-,N/A,,Mostly Cloudy,350,2013-01-29 08:05:00
3:19 AM,48.2,48.2,100,30.28,2.0,North,4.6,-,N/A,,Mostly Cloudy,350,2013-01-29 08:19:00
3:31 AM,50.0,50.0,100,30.28,0.2,Calm,Calm,-,N/A,Fog,Fog,0,2013-01-29 08:31:00
3:40 AM,50.0,50.0,100,30.27,0.2,Calm,Calm,-,N/A,Fog,Fog,0,2013-01-29 08:40:00
3:56 AM,50.0,48.9,96,30.27,0.2,Calm,Calm,-,N/A,Fog,Fog,0,2013-01-29 08:56:00
4:56 AM,48.9,48.9,100,30.27,0.2,Calm,Calm,-,N/A,Fog,Fog,0,2013-01-29 09:56:00
5:28 AM,48.2,48.2,100,30.27,0.5,Calm,Calm,-,N/A,Fog,Fog,0,2013-01-29 10:28:00
5:56 AM,48.0,46.9,96,30.27,0.5,Calm,Calm,-,N/A,Fog,Fog,0,2013-01-29 10:56:00
6:56 AM,48.9,48.0,97,30.27,0.5,Calm,Calm,-,N/A,Fog,Fog,0,2013-01-29 11:56:00
7:56 AM,50.0,48.9,96,30.28,0.5,Calm,Calm,-,N/A,Fog,Fog,0,2013-01-29 12:56:00
8:45 AM,53.6,53.6,100,30.28,0.8,Calm,Calm,-,N/A,,Mostly Cloudy,0,2013-01-29 13:45:00
8:56 AM,53.1,52.0,96,30.28,0.8,Calm,Calm,-,N/A,,Overcast,0,2013-01-29 13:56:00
9:50 AM,57.2,57.2,100,30.28,1.0,Calm,Calm,-,N/A,,Mostly Cloudy,0,2013-01-29 14:50:00
9:56 AM,57.9,57.0,97,30.28,3.0,Calm,Calm,-,N/A,,Scattered Clouds,0,2013-01-29 14:56:00
10:56 AM,71.1,61.0,70,30.27,10.0,WSW,8.1,-,N/A,,Partly Cloudy,240,2013-01-29 15:56:00
11:56 AM,75.0,62.1,64,30.24,10.0,SSW,8.1,-,N/A,,Scattered Clouds,210,2013-01-29 16:56:00
12:56 PM,75.9,59.0,56,30.21,10.0,SW,9.2,-,N/A,,Scattered Clouds,230,2013-01-29 17:56:00
1:56 PM,77.0,59.0,54,30.17,10.0,SSW,12.7,19.6,N/A,,Scattered Clouds,200,2013-01-29 18:56:00
2:56 PM,75.9,59.0,56,30.16,10.0,SSW,13.8,18.4,N/A,,Scattered Clouds,200,2013-01-29 19:56:00
3:56 PM,75.0,60.1,60,30.16,10.0,SSW,13.8,-,N/A,,Scattered Clouds,200,2013-01-29 20:56:00
4:56 PM,72.0,62.1,71,30.17,10.0,SSW,11.5,-,N/A,,Mostly Cloudy,210,2013-01-29 21:56:00
5:56 PM,68.0,62.1,81,30.16,10.0,South,8.1,-,N/A,,Mostly Cloudy,190,2013-01-29 22:56:00
6:56 PM,64.9,62.1,90,30.16,10.0,SSE,6.9,-,N/A,,Scattered Clouds,160,2013-01-29 23:56:00
7:56 PM,63.0,61.0,93,30.16,7.0,SSE,5.8,-,N/A,,Scattered Clouds,160,2013-01-30 00:56:00
8:56 PM,61.0,60.1,97,30.15,6.0,SSE,4.6,-,N/A,,Scattered Clouds,150,2013-01-30 01:56:00
9:56 PM,61.0,60.1,97,30.14,5.0,SSE,5.8,-,N/A,,Partly Cloudy,150,2013-01-30 02:56:00
10:56 PM,62.1,61.0,96,30.15,8.0,South,4.6,-,N/A,,Partly Cloudy,180,2013-01-30 03:56:00
11:56 PM,63.0,61.0,93,30.13,10.0,South,8.1,-,N/A,,Partly Cloudy,170,2013-01-30 04:56:00